Other Surface Observations
Issued by NWS Jacksonville, FL

Home | Current Version | Previous Version | Text Only | Print | Product List | Glossary On
Versions: 1 2 3 4 5 6 7 8 9 10 11 12 13 14 15 16 17 18 19 20 21 22 23 24 25 26 27 28 29 30 31 32 33 34 35 36 37 38 39 40 41 42 43 44 45 46 47 48 49 50
129
SXUS52 KJAX 222012
OSOJAX
OTHER SURFACE OBSERVATIONS
NATIONAL WEATHER SERVICE JACKSONVILLE FL
300 PM EST SUN JAN 22 2017

FLZ020>025-030>033-035>038-040-222100-
...FLORIDA...

CITY           SKY/WX    TMP DP  RH WIND       PRES   REMARKS
CECIL FIELD    PTSUNNY   79  72  78 SW16G25   29.48S
HERLONG FIELD  NOT AVBL
FERNANDINA BCH NOT AVBL
LAKE CITY      CLOUDY    79  70  73 SW18G32   29.44F
JUNIPER SPGS   NOT AVBL
BUNNELL        NOT AVBL
KEYSTONE HGTS  MOCLDY    75  72  88 SW17G31   29.49F
$$

GAZ132>136-149>154-162>166-222100-
...GEORGIA...

CITY           SKY/WX    TMP DP  RH WIND       PRES   REMARKS
JESUP          CLOUDY    64  61  88 SE3       29.46F
HOMERVILLE     CLOUDY    64  64 100 SE6       29.40F
SWAINSBORO     CLOUDY    63  63 100 SE13      29.43R
CORDELE        NOT AVBL
EASTMAN        CLOUDY    67  66  98 SE5       29.37F
$$

PLEASE NOTE:  THESE OBSERVATIONS ARE NOT QUALITY CONTROLLED AND MAY
NOT BE AVAILABLE AT ALL TIMES.
$$




USA.gov is the U.S. government's official web portal to all federal, state and local government web resources and services.